• In Hungary
  • List of Countries
  • For 7 days
  • Water Temperature
  • Satellite Maps
  • Weather Map
  • News
  • Weather Widgets
  • user-avatar
    Login

    Hourly Weather Kardzhali

    Today, 24 September, Monday

    Time Temperature Precipitation Wind Pressure Humidity
    00:00 +22°C° 0 mm 1 mps 729 mmHg 58%
    01:00 +21°C° 0 mm 1 mps 728 mmHg 59%
    02:00 +21°C° 0 mm 1 mps 728 mmHg 60%
    03:00 +20°C° 0 mm 1 mps 727 mmHg 61%
    04:00 +20°C° 0 mm 1 mps 727 mmHg 61%
    05:00 +20°C° 0 mm 1 mps 727 mmHg 62%
    06:00 +21°C° 0 mm 1 mps 727 mmHg 58%
    07:00 +22°C° 0 mm 1 mps 726 mmHg 53%
    08:00 +24°C° 0 mm 1 mps 726 mmHg 48%
    09:00 +26°C° 0 mm 2 mps 726 mmHg 43%
    10:00 +28°C° 0 mm 3 mps 726 mmHg 37%
    11:00 +30°C° 0 mm 3 mps 726 mmHg 32%
    12:00 +32°C° 0 mm 4 mps 726 mmHg 30%
    13:00 +33°C° 0 mm 4 mps 725 mmHg 29%
    14:00 +33°C° 0 mm 4 mps 725 mmHg 28%
    15:00 +33°C° 0 mm 4 mps 725 mmHg 30%
    16:00 +32°C° 0 mm 4 mps 725 mmHg 32%
    17:00 +30°C° 0 mm 3 mps 725 mmHg 34%
    18:00 +28°C° 0 mm 4 mps 725 mmHg 40%
    19:00 +25°C° 0 mm 4 mps 726 mmHg 46%
    20:00 +22°C° 0 mm 4 mps 726 mmHg 52%
    21:00 +21°C° 0 mm 5 mps 727 mmHg 53%
    22:00 +19°C° 0 mm 5 mps 728 mmHg 54%
    23:00 +17°C° 0 mm 5 mps 729 mmHg 55%

    Tomorrow, 25 September, Tuesday

    Time Temperature Precipitation Wind Pressure Humidity
    00:00 +16°C° 0 mm 5 mps 729 mmHg 54%
    01:00 +16°C° 0 mm 5 mps 730 mmHg 53%
    02:00 +15°C° 0 mm 5 mps 730 mmHg 52%
    03:00 +14°C° 0 mm 5 mps 731 mmHg 51%
    04:00 +14°C° 0 mm 6 mps 731 mmHg 51%
    05:00 +13°C° 0 mm 6 mps 731 mmHg 50%
    06:00 +13°C° 0 mm 6 mps 732 mmHg 49%
    07:00 +13°C° 0 mm 5 mps 732 mmHg 47%
    08:00 +12°C° 0 mm 5 mps 733 mmHg 46%
    09:00 +13°C° 0 mm 5 mps 733 mmHg 41%
    10:00 +15°C° 0 mm 5 mps 734 mmHg 35%
    11:00 +16°C° 0 mm 5 mps 734 mmHg 29%
    12:00 +17°C° 0 mm 5 mps 734 mmHg 26%
    13:00 +19°C° 0 mm 5 mps 734 mmHg 23%
    14:00 +20°C° 0 mm 6 mps 734 mmHg 21%
    15:00 +19°C° 0 mm 6 mps 734 mmHg 21%
    16:00 +19°C° 0 mm 6 mps 733 mmHg 22%
    17:00 +17°C° 0 mm 6 mps 733 mmHg 23%
    18:00 +15°C° 0 mm 5 mps 734 mmHg 26%
    19:00 +14°C° 0 mm 5 mps 734 mmHg 29%
    20:00 +12°C° 0 mm 4 mps 735 mmHg 32%
    21:00 +11°C° 0 mm 4 mps 735 mmHg 35%
    22:00 +11°C° 0 mm 4 mps 736 mmHg 38%
    23:00 +10°C° 0 mm 4 mps 736 mmHg 42%

    Day after tomorrow, 26 September, Wednesday

    Time Temperature Precipitation Wind Pressure Humidity
    00:00 +8°C° 0 mm 4 mps 736 mmHg 44%
    01:00 +8°C° 0 mm 4 mps 736 mmHg 46%
    02:00 +9°C° 0 mm 3 mps 736 mmHg 48%
    03:00 +7°C° 0 mm 4 mps 736 mmHg 48%
    04:00 +7°C° 0 mm 4 mps 736 mmHg 48%
    05:00 +6°C° 0 mm 4 mps 737 mmHg 48%
    06:00 +7°C° 0 mm 5 mps 737 mmHg 47%
    07:00 +8°C° 0 mm 5 mps 737 mmHg 45%
    08:00 +9°C° 0 mm 6 mps 738 mmHg 44%
    09:00 +10°C° 0 mm 7 mps 738 mmHg 40%
    10:00 +11°C° 0 mm 7 mps 738 mmHg 36%
    11:00 +13°C° 0 mm 8 mps 738 mmHg 32%
    12:00 +13°C° 0 mm 8 mps 738 mmHg 31%
    13:00 +15°C° 0 mm 8 mps 737 mmHg 29%
    14:00 +16°C° 0 mm 8 mps 737 mmHg 28%
    15:00 +15°C° 0 mm 8 mps 737 mmHg 29%
    16:00 +13°C° 0 mm 8 mps 737 mmHg 31%
    17:00 +13°C° 0 mm 8 mps 736 mmHg 32%
    18:00 +12°C° 0 mm 7 mps 737 mmHg 35%
    19:00 +10°C° 0 mm 7 mps 737 mmHg 39%
    20:00 +9°C° 0 mm 6 mps 737 mmHg 42%
    21:00 +8°C° 0 mm 6 mps 738 mmHg 44%
    22:00 +8°C° 0 mm 6 mps 738 mmHg 45%
    23:00 +7°C° 0 mm 6 mps 738 mmHg 47%

    27 September, Thursday

    Time Temperature Precipitation Wind Pressure Humidity
    00:00 +7°C° 0 mm 6 mps 737 mmHg 48%
    01:00 +5°C° 0 mm 6 mps 737 mmHg 50%
    02:00 +5°C° 0 mm 6 mps 737 mmHg 51%
    03:00 +4°C° 0 mm 6 mps 737 mmHg 52%
    04:00 +4°C° 0 mm 6 mps 736 mmHg 53%
    05:00 +4°C° 0 mm 6 mps 736 mmHg 54%
    06:00 +5°C° 0 mm 7 mps 736 mmHg 50%
    07:00 +6°C° 0 mm 7 mps 736 mmHg 47%
    08:00 +7°C° 0 mm 8 mps 736 mmHg 43%
    09:00 +9°C° 0 mm 8 mps 736 mmHg 38%
    10:00 +11°C° 0 mm 9 mps 735 mmHg 34%
    11:00 +13°C° 0 mm 9 mps 735 mmHg 29%
    12:00 +15°C° 0 mm 9 mps 735 mmHg 28%
    13:00 +16°C° 0 mm 9 mps 734 mmHg 26%
    14:00 +17°C° 0 mm 9 mps 733 mmHg 24%
    15:00 +16°C° 0 mm 9 mps 733 mmHg 26%
    16:00 +16°C° 0 mm 9 mps 733 mmHg 27%
    17:00 +15°C° 0 mm 8 mps 732 mmHg 29%
    18:00 +14°C° 0 mm 7 mps 732 mmHg 32%
    19:00 +11°C° 0 mm 7 mps 732 mmHg 36%
    20:00 +10°C° 0 mm 6 mps 733 mmHg 40%
    21:00 +10°C° 0 mm 6 mps 732 mmHg 42%
    22:00 +9°C° 0 mm 5 mps 732 mmHg 44%
    23:00 +8°C° 0 mm 5 mps 732 mmHg 47%

    28 September, Friday

    Time Temperature Precipitation Wind Pressure Humidity
    00:00 +8°C° 0 mm 5 mps 732 mmHg 46%
    01:00 +8°C° 0 mm 5 mps 731 mmHg 45%
    02:00 +8°C° 0 mm 5 mps 731 mmHg 44%
    03:00 +8°C° 0 mm 5 mps 731 mmHg 43%
    04:00 +8°C° 0 mm 5 mps 730 mmHg 41%
    05:00 +7°C° 0 mm 5 mps 730 mmHg 40%
    06:00 +8°C° 0 mm 5 mps 730 mmHg 39%
    07:00 +9°C° 0 mm 5 mps 730 mmHg 38%
    08:00 +12°C° 0 mm 5 mps 730 mmHg 37%
    09:00 +13°C° 0 mm 5 mps 730 mmHg 37%
    10:00 +15°C° 0 mm 6 mps 730 mmHg 36%
    11:00 +17°C° 0 mm 6 mps 730 mmHg 36%
    12:00 +19°C° 0 mm 6 mps 730 mmHg 35%
    13:00 +20°C° 0 mm 6 mps 729 mmHg 35%
    14:00 +21°C° 0 mm 6 mps 729 mmHg 34%
    15:00 +21°C° 0 mm 5 mps 729 mmHg 36%
    16:00 +20°C° 0 mm 5 mps 728 mmHg 38%
    17:00 +20°C° 0 mm 4 mps 728 mmHg 39%
    18:00 +18°C° 0 mm 4 mps 728 mmHg 45%
    19:00 +17°C° 0 mm 3 mps 728 mmHg 51%
    20:00 +14°C° 0 mm 3 mps 728 mmHg 56%
    21:00 +15°C° 0 mm 2 mps 728 mmHg 61%
    22:00 +14°C° 0 mm 2 mps 728 mmHg 65%
    23:00 +14°C° 0 mm 2 mps 728 mmHg 69%

    29 September, Saturday

    Time Temperature Precipitation Wind Pressure Humidity
    00:00 +13°C° 0 mm 2 mps 727 mmHg 71%
    01:00 +13°C° 0 mm 2 mps 727 mmHg 73%
    02:00 +13°C° 0 mm 2 mps 727 mmHg 75%
    03:00 +13°C° 0 mm 2 mps 727 mmHg 75%
    04:00 +12°C° 0 mm 2 mps 727 mmHg 76%
    05:00 +12°C° 0 mm 2 mps 727 mmHg 76%
    06:00 +13°C° 0 mm 2 mps 727 mmHg 72%
    07:00 +14°C° 0 mm 2 mps 727 mmHg 68%
    08:00 +14°C° 0 mm 2 mps 727 mmHg 65%
    09:00 +16°C° 0 mm 2 mps 727 mmHg 59%
    10:00 +17°C° 0 mm 2 mps 727 mmHg 53%
    11:00 +19°C° 0 mm 2 mps 727 mmHg 48%
    12:00 +20°C° 0 mm 2 mps 727 mmHg 45%
    13:00 +21°C° 0 mm 3 mps 727 mmHg 42%
    14:00 +22°C° 0 mm 3 mps 727 mmHg 38%
    15:00 +21°C° 0 mm 3 mps 727 mmHg 40%
    16:00 +20°C° 0 mm 3 mps 726 mmHg 41%
    17:00 +20°C° 0 mm 3 mps 726 mmHg 42%
    18:00 +18°C° 0 mm 2 mps 727 mmHg 47%
    19:00 +17°C° 0 mm 2 mps 727 mmHg 52%
    20:00 +15°C° 0 mm 1 mps 727 mmHg 57%
    21:00 +15°C° 0 mm 2 mps 727 mmHg 58%
    22:00 +14°C° 0 mm 2 mps 727 mmHg 59%
    23:00 +14°C° 0 mm 2 mps 728 mmHg 60%
    Show more